FW7026 Weather Reports


Display with metric or nautical units.
time (UTC)temp
F
wind
direction
speed
MPH
gust
MPH
rain 1hr
in
rain 24hr
in
rain mn
in
humidity
%
barometer
mb
20260901161350 68 336 0.0 0.0 0.00 0.00 0.00 45 1018.2
20260901160845 68 336 0.0 0.0 0.00 0.00 0.00 45 1018.2
20260901160342 68 336 0.0 0.0 0.00 0.00 0.00 45 1018.2
20260901155840 67 199 0.0 0.0 0.00 0.00 0.00 49 1018.2
20260901155335 67 199 0.0 0.0 0.00 0.00 0.00 49 1018.2
20260901154832 67 149 0.0 0.0 0.00 0.00 0.00 46 1018.5
20260901154330 68 235 0.0 0.0 0.00 0.00 0.00 44 1018.5
20260901153825 70 221 0.0 0.0 0.00 0.00 0.00 46 1018.5
20260901153320 70 221 0.0 0.0 0.00 0.00 0.00 46 1018.5
20260901152819 70 109 0.0 0.0 0.00 0.00 0.00 45 1018.5
20260901152318 70 109 0.0 0.0 0.00 0.00 0.00 45 1018.5
20260901151629 71 296 0.0 0.0 0.00 0.00 0.00 49 1018.5
20260901151128 71 296 0.0 0.0 0.00 0.00 0.00 49 1018.5
20260901150626 70 152 0.0 0.0 0.00 0.00 0.00 46 1018.5
20260901150120 69 218 0.0 0.0 0.00 0.00 0.00 48 1018.5
20260901145618 70 200 0.0 0.0 0.00 0.00 0.00 46 1018.5
20260901144937 69 4 0.0 0.0 0.00 0.00 0.00 48 1018.9
20260901144433 69 4 0.0 0.0 0.00 0.00 0.00 48 1018.9
20260901143928 69 217 0.0 0.0 0.00 0.00 0.00 49 1018.5
20260901143424 69 170 0.0 0.0 0.00 0.00 0.00 49 1018.9
20260901142920 69 170 0.0 0.0 0.00 0.00 0.00 49 1018.9
20260901141903 70 199 0.0 0.0 0.00 0.00 0.00 51 1018.9
20260901141358 70 199 0.0 0.0 0.00 0.00 0.00 51 1018.9
20260901140857 67 245 0.0 0.0 0.00 0.00 0.00 56 1018.9
20260901140355 67 245 0.0 0.0 0.00 0.00 0.00 56 1018.9
20260901135850 66 167 0.0 0.0 0.00 0.00 0.00 63 1017.8
20260901135346 67 244 0.0 0.0 0.00 0.00 0.00 61 1018.5
20260901134842 67 244 0.0 0.0 0.00 0.00 0.00 61 1018.5
20260901134337 65 190 0.0 0.0 0.00 0.00 0.00 64 1018.5
20260901133837 65 190 0.0 0.0 0.00 0.00 0.00 64 1018.5
20260901133336 64 202 0.0 0.0 0.00 0.00 0.00 67 1018.5
20260901132835 64 228 0.0 0.0 0.00 0.00 0.00 66 1018.5
20260901132329 64 228 0.0 0.0 0.00 0.00 0.00 66 1018.5
20260901131823 64 304 0.0 0.0 0.00 0.00 0.00 67 1018.2
20260901131323 63 48 0.0 0.0 0.00 0.00 0.00 67 1018.5
20260901130818 63 48 0.0 0.0 0.00 0.00 0.00 67 1018.5
20260901130312 64 128 0.0 0.0 0.00 0.00 0.00 69 1018.2
20260901125810 63 219 0.0 0.0 0.00 0.00 0.00 70 1018.2
20260901125308 62 171 0.0 0.0 0.00 0.00 0.00 71 1018.2
20260901124800 62 187 0.0 0.0 0.00 0.00 0.00 74 1018.2
20260901124254 62 187 0.0 0.0 0.00 0.00 0.00 74 1018.2
20260901123754 60 47 0.0 0.0 0.00 0.00 0.00 75 1017.8
20260901123249 60 47 0.0 0.0 0.00 0.00 0.00 75 1017.8
20260901122748 58 160 0.0 0.0 0.00 0.00 0.00 77 1018.2
20260901122243 59 191 0.0 0.0 0.00 0.00 0.00 78 1017.8
20260901121743 57 286 0.0 0.0 0.00 0.00 0.00 79 1017.8
20260901121238 56 193 0.0 0.0 0.00 0.00 0.00 83 1017.8
20260901120737 56 193 0.0 0.0 0.00 0.00 0.00 83 1017.8
20260901120232 54 7 0.0 0.0 0.00 0.00 0.00 86 1018.2
20260901115728 54 7 0.0 0.0 0.00 0.00 0.00 86 1018.2
20260901115223 53 296 0.0 0.0 0.00 0.00 0.00 88 1017.8
20260901114720 53 193 0.0 0.0 0.00 0.00 0.00 89 1017.8
20260901113643 52 281 0.0 0.0 0.00 0.00 0.00 91 1017.4
20260901113139 52 281 0.0 0.0 0.00 0.00 0.00 91 1017.4
20260901112633 52 197 0.0 0.0 0.00 0.00 0.00 92 1017.8
20260901112132 52 197 0.0 0.0 0.00 0.00 0.00 92 1017.8
20260901111626 51 211 0.0 0.0 0.00 0.00 0.00 92 1017.4
20260901111125 50 203 0.0 0.0 0.00 0.00 0.00 92 1017.4
20260901110620 50 203 0.0 0.0 0.00 0.00 0.00 92 1017.4
20260901110005 49 202 0.0 0.0 0.00 0.00 0.00 92 1017.1
20260901105501 49 202 0.0 0.0 0.00 0.00 0.00 92 1017.1
20260901104956 48 207 0.0 0.0 0.00 0.00 0.00 92 1017.1
20260901104451 48 207 0.0 0.0 0.00 0.00 0.00 92 1017.1
20260901103951 48 207 0.0 0.0 0.00 0.00 0.00 92 1017.1
20260901103446 47 198 0.0 0.0 0.00 0.00 0.00 92 1017.1
20260901102941 47 202 0.0 0.0 0.00 0.00 0.00 92 1017.1
20260901102437 47 202 0.0 0.0 0.00 0.00 0.00 92 1017.1
20260901101931 47 200 0.0 0.0 0.00 0.00 0.00 92 1017.1
20260901101426 47 204 0.0 0.0 0.00 0.00 0.00 92 1017.1
20260901100926 47 204 0.0 0.0 0.00 0.00 0.00 92 1017.1
20260901100421 47 202 0.0 0.0 0.00 0.00 0.00 91 1016.8
20260901095920 47 202 0.0 0.0 0.00 0.00 0.00 91 1016.8
20260901095126 48 206 0.0 0.0 0.00 0.00 0.00 91 1017.1
20260901094621 48 206 0.0 0.0 0.00 0.00 0.00 91 1017.1
20260901094115 48 190 0.0 0.0 0.00 0.00 0.00 91 1017.1
20260901093610 48 190 0.0 0.0 0.00 0.00 0.00 91 1017.1
20260901093104 48 197 0.0 0.0 0.00 0.00 0.00 91 1017.1
20260901092600 49 205 0.0 0.0 0.00 0.00 0.00 91 1016.8
20260901092056 49 205 0.0 0.0 0.00 0.00 0.00 91 1016.8
20260901091551 49 205 0.0 0.0 0.00 0.00 0.00 91 1016.8
20260901091051 49 232 0.0 0.0 0.00 0.00 0.00 91 1016.8
20260901090550 49 232 0.0 0.0 0.00 0.00 0.00 91 1016.8
20260901090047 49 233 0.0 0.0 0.00 0.00 0.00 91 1016.8
20260901085542 49 211 0.0 0.0 0.00 0.00 0.00 91 1016.8
20260901085039 49 211 0.0 0.0 0.00 0.00 0.00 91 1016.8
20260901084535 49 203 0.0 0.0 0.00 0.00 0.00 91 1016.8
20260901084030 49 208 0.0 0.0 0.00 0.00 0.00 91 1016.8
20260901083524 49 215 0.0 0.0 0.00 0.00 0.00 91 1016.8
20260901083022 49 208 0.0 0.0 0.00 0.00 0.00 91 1016.8
20260901082517 49 208 0.0 0.0 0.00 0.00 0.00 91 1016.8
20260901082013 49 199 0.0 0.0 0.00 0.00 0.00 91 1016.4
20260901081507 49 204 0.0 0.0 0.00 0.00 0.00 90 1016.8
20260901081002 50 206 0.0 0.0 0.00 0.00 0.00 90 1016.8
20260901080456 50 205 0.0 0.0 0.00 0.00 0.00 90 1016.8
20260901075956 50 204 0.0 0.0 0.00 0.00 0.00 90 1016.8
20260901075452 50 204 0.0 0.0 0.00 0.00 0.00 90 1016.8
20260901074950 50 207 0.0 0.0 0.00 0.00 0.00 90 1016.8
20260901074445 50 208 0.0 0.0 0.00 0.00 0.00 90 1016.8
20260901073940 50 209 0.0 0.0 0.00 0.00 0.00 89 1016.8
20260901073437 50 209 0.0 0.0 0.00 0.00 0.00 89 1016.8
20260901072937 50 209 0.0 0.0 0.00 0.00 0.00 89 1016.8
20260901072432 50 226 0.0 0.0 0.00 0.00 0.00 88 1016.8
20260901071927 50 226 0.0 0.0 0.00 0.00 0.00 88 1016.8
20260901071426 50 204 0.0 0.0 0.00 0.00 0.00 87 1016.8
20260901070925 50 204 0.0 0.0 0.00 0.00 0.00 87 1016.8
20260901070421 50 204 0.0 0.0 0.00 0.00 0.00 86 1016.4
20260901065920 50 204 0.0 0.0 0.00 0.00 0.00 84 1016.4
20260901065415 50 204 0.0 0.0 0.00 0.00 0.00 84 1016.4
20260901064910 50 207 0.0 0.0 0.00 0.00 0.00 84 1016.4
20260901064407 50 204 0.0 0.0 0.00 0.00 0.00 83 1016.8
20260901063903 50 210 0.0 0.0 0.00 0.00 0.00 82 1016.8
20260901063400 50 203 0.0 0.0 0.00 0.00 0.00 81 1016.4
20260901062850 50 206 0.0 0.0 0.00 0.00 0.00 80 1016.4
20260901062346 50 211 0.0 0.0 0.00 0.00 0.00 80 1016.4
20260901061841 50 217 0.0 0.0 0.00 0.00 0.00 79 1016.4
20260901061336 50 207 0.0 0.0 0.00 0.00 0.00 79 1016.4
20260901060831 51 209 0.0 0.0 0.00 0.00 0.00 79 1016.4
20260901060327 51 208 0.0 0.0 0.00 0.00 0.00 78 1016.4
20260901055827 51 204 0.0 0.0 0.00 0.00 0.00 78 1016.4
20260901055323 51 204 0.0 0.0 0.00 0.00 0.00 78 1016.4
20260901054631 51 205 0.0 0.0 0.00 0.00 0.00 77 1016.4
20260901054127 51 205 0.0 0.0 0.00 0.00 0.00 77 1016.4
20260901053623 51 205 0.0 0.0 0.00 0.00 0.00 77 1016.4
20260901053118 51 184 0.0 0.0 0.00 0.00 0.00 76 1016.4
20260901052618 51 201 0.0 0.0 0.00 0.00 0.00 76 1016.1
20260901052114 51 203 0.0 0.0 0.00 0.00 0.00 76 1016.4
20260901051613 50 204 0.0 0.0 0.00 0.00 0.00 76 1016.4
20260901051112 51 201 0.0 0.0 0.00 0.00 0.00 75 1016.4
20260901050608 51 201 0.0 0.0 0.00 0.00 0.00 75 1016.4
20260901045557 52 209 0.0 0.0 0.00 0.00 0.00 74 1016.4
20260901045052 52 209 0.0 0.0 0.00 0.00 0.00 74 1016.4
20260901044548 52 209 0.0 0.0 0.00 0.00 0.00 74 1016.4
20260901044044 52 205 0.0 0.0 0.00 0.00 0.00 73 1016.4
20260901043539 52 205 0.0 0.0 0.00 0.00 0.00 73 1016.4
20260901043035 53 206 0.0 0.0 0.00 0.00 0.00 72 1016.4
20260901042534 53 206 0.0 0.0 0.00 0.00 0.00 72 1016.4
20260901042029 53 213 0.0 0.0 0.00 0.00 0.00 72 1016.4
20260901041525 53 217 0.0 0.0 0.00 0.00 0.00 72 1016.4
20260901041019 53 201 0.0 0.0 0.00 0.00 0.00 72 1016.4
20260901040513 53 212 0.0 0.0 0.00 0.00 0.00 71 1016.4
20260901040008 54 206 0.0 0.0 0.00 0.00 0.00 71 1016.1
20260901035506 54 206 0.0 0.0 0.00 0.00 0.00 71 1016.1
20260901035004 54 208 0.0 0.0 0.00 0.00 0.00 70 1016.4
20260901034504 54 208 0.0 0.0 0.00 0.00 0.00 70 1016.4
20260901033959 54 205 0.0 0.0 0.00 0.00 0.00 71 1016.4
20260901033458 54 207 0.0 0.0 0.00 0.00 0.00 70 1016.4
20260901032957 54 207 0.0 0.0 0.00 0.00 0.00 70 1016.4
20260901032451 54 207 0.0 0.0 0.00 0.00 0.00 70 1016.4
20260901031946 55 219 0.0 0.0 0.00 0.00 0.00 70 1016.4
20260901031442 55 219 0.0 0.0 0.00 0.00 0.00 70 1016.4
20260901030942 55 220 0.0 0.0 0.00 0.00 0.00 69 1016.4
20260901030438 55 220 0.0 0.0 0.00 0.00 0.00 69 1016.4
20260901025936 55 210 0.0 0.0 0.00 0.00 0.00 69 1016.4
20260901025432 55 213 0.0 0.0 0.00 0.00 0.00 68 1016.4
20260901024931 55 213 0.0 0.0 0.00 0.00 0.00 68 1016.4
20260901024426 55 212 0.0 0.0 0.00 0.00 0.00 68 1016.4
20260901023924 56 229 0.0 0.0 0.00 0.00 0.00 68 1016.4
20260901023419 56 229 0.0 0.0 0.00 0.00 0.00 68 1016.4
20260901022914 56 222 0.0 0.0 0.00 0.00 0.00 67 1016.1
20260901022410 56 225 0.0 0.0 0.00 0.00 0.00 68 1016.4
20260901021905 56 213 0.0 0.0 0.00 0.00 0.00 68 1016.4
20260901021401 55 214 0.0 0.0 0.00 0.00 0.00 69 1016.4
20260901020855 55 214 0.0 0.0 0.00 0.00 0.00 69 1016.4
20260901020345 55 216 0.0 0.0 0.00 0.00 0.00 70 1016.4
20260901015844 55 208 0.0 0.0 0.00 0.00 0.00 71 1016.4
20260901015341 55 208 0.0 0.0 0.00 0.00 0.00 71 1016.4
20260901014840 55 198 0.0 0.0 0.00 0.00 0.00 69 1016.1
20260901014336 55 198 0.0 0.0 0.00 0.00 0.00 69 1016.1
20260901013831 55 205 0.0 0.0 0.00 0.00 0.00 69 1016.4
20260901013327 55 208 0.0 0.0 0.00 0.00 0.00 68 1016.1
20260901012823 55 208 0.0 0.0 0.00 0.00 0.00 68 1016.1
20260901012322 55 209 0.0 0.0 0.00 0.00 0.00 67 1016.1
20260901011755 56 226 0.0 0.0 0.00 0.00 0.00 67 1016.1
20260901011250 56 226 0.0 0.0 0.00 0.00 0.00 67 1016.1
20260901010744 55 231 0.0 0.0 0.00 0.00 0.00 67 1016.1
20260901010239 55 231 0.0 0.0 0.00 0.00 0.00 67 1016.1
20260901005737 55 217 0.0 0.0 0.00 0.00 0.00 67 1016.1
20260901005233 56 235 0.0 0.0 0.00 0.00 0.00 67 1016.1
20260901004732 56 235 0.0 0.0 0.00 0.00 0.00 67 1016.1
20260901004227 56 236 0.0 0.0 0.00 0.00 0.00 67 1016.1
20260901003722 56 232 0.0 0.0 0.00 0.00 0.00 67 1016.1
20260901003221 56 242 0.0 0.0 0.00 0.00 0.00 67 1016.1
20260901002720 56 218 0.0 0.0 0.00 0.00 0.00 67 1016.1
20260901002215 56 231 0.0 0.0 0.00 0.00 0.00 66 1015.7
20260901001711 56 225 0.0 0.0 0.00 0.00 0.00 66 1015.7
20260901001207 56 226 0.0 0.0 0.00 0.00 0.00 66 1015.7
20260901000702 56 226 0.0 0.0 0.00 0.00 0.00 66 1015.7
20260901000157 57 233 0.0 0.0 0.00 0.00 0.00 66 1015.7
20260831235656 57 233 0.0 0.0 0.00 0.00 0.00 66 1015.7
20260831235152 57 233 0.0 0.0 0.00 0.00 0.00 66 1015.7
20260831234651 57 220 0.0 0.0 0.00 0.00 0.00 65 1015.7
20260831234146 57 242 0.0 0.0 0.00 0.00 0.00 66 1015.7
20260831233642 57 217 0.0 0.0 0.00 0.00 0.00 64 1015.7
20260831233137 58 196 0.0 0.0 0.00 0.00 0.00 63 1015.7
20260831232632 59 219 0.0 0.0 0.00 0.00 0.00 61 1015.7
20260831232129 59 219 0.0 0.0 0.00 0.00 0.00 61 1015.7
20260831231624 60 220 0.0 0.0 0.00 0.00 0.00 60 1015.7
20260831231119 60 220 0.0 0.0 0.00 0.00 0.00 60 1015.7
20260831230103 60 214 0.0 0.0 0.00 0.00 0.00 59 1015.7
20260831225558 60 214 0.0 0.0 0.00 0.00 0.00 59 1015.7
20260831225053 61 207 0.0 0.0 0.00 0.00 0.00 59 1015.7
20260831224548 62 194 0.0 0.0 0.00 0.00 0.00 57 1015.7
20260831224043 63 187 0.0 0.0 0.00 0.00 0.00 55 1015.7
20260831223539 63 187 0.0 0.0 0.00 0.00 0.00 55 1015.7
20260831223035 63 187 0.0 0.0 0.00 0.00 0.00 55 1015.7
20260831222531 64 187 0.0 0.0 0.00 0.00 0.00 54 1015.7
20260831222030 64 279 0.0 0.0 0.00 0.00 0.00 51 1015.7
20260831221526 65 336 0.0 2.0 0.00 0.00 0.00 52 1015.7
20260831221021 66 184 0.0 0.0 0.00 0.00 0.00 54 1015.4
20260831220407 66 170 0.0 0.0 0.00 0.00 0.00 52 1015.4
20260831215902 66 170 0.0 0.0 0.00 0.00 0.00 52 1015.4
20260831215357 66 170 0.0 0.0 0.00 0.00 0.00 52 1015.4
20260831214853 66 134 0.0 0.0 0.00 0.00 0.00 50 1015.4
20260831214351 66 37 0.0 0.0 0.00 0.00 0.00 50 1015.1
20260831213846 66 37 0.0 0.0 0.00 0.00 0.00 50 1015.1
20260831213342 66 37 0.0 0.0 0.00 0.00 0.00 50 1015.1
20260831212837 66 200 0.0 0.0 0.00 0.00 0.00 51 1015.1
20260831212334 66 200 0.0 0.0 0.00 0.00 0.00 51 1015.1
20260831211832 67 186 0.0 0.0 0.00 0.00 0.00 51 1015.1
20260831211327 67 186 0.0 0.0 0.00 0.00 0.00 51 1015.1
20260831210827 67 172 0.0 0.0 0.00 0.00 0.00 52 1015.1
20260831210323 67 172 0.0 0.0 0.00 0.00 0.00 52 1015.1
20260831205823 66 220 0.0 0.0 0.00 0.00 0.00 52 1015.1
20260831205319 67 213 0.0 0.0 0.00 0.00 0.00 50 1015.1
20260831204814 68 191 0.0 0.0 0.00 0.00 0.00 52 1015.1
20260831204313 68 191 0.0 0.0 0.00 0.00 0.00 52 1015.1
20260831203812 68 198 0.0 0.0 0.00 0.00 0.00 49 1014.7
20260831203307 69 186 0.0 0.0 0.00 0.00 0.00 48 1014.7
20260831202805 69 89 0.0 0.0 0.00 0.00 0.00 51 1015.1
20260831202301 69 89 0.0 0.0 0.00 0.00 0.00 51 1015.1
20260831201800 69 188 0.0 0.0 0.00 0.00 0.00 48 1014.7
20260831201259 69 188 0.0 0.0 0.00 0.00 0.00 48 1014.7
20260831200755 70 277 0.0 0.0 0.00 0.00 0.00 49 1015.1
20260831200250 70 277 0.0 0.0 0.00 0.00 0.00 49 1015.1
20260831195745 70 174 0.0 0.0 0.00 0.00 0.00 48 1014.7
20260831195241 69 156 0.0 0.0 0.00 0.00 0.00 48 1015.1
20260831194730 70 225 0.0 0.0 0.00 0.00 0.00 48 1015.1
20260831194226 71 198 0.0 0.0 0.00 0.00 0.00 47 1015.1
20260831193725 71 198 0.0 0.0 0.00 0.00 0.00 47 1015.1
20260831193220 71 57 0.0 2.0 0.00 0.00 0.00 47 1015.1
20260831192715 71 57 0.0 2.0 0.00 0.00 0.00 47 1015.1
20260831192211 72 298 0.0 0.0 0.00 0.00 0.00 46 1015.1
20260831191706 73 223 0.0 0.0 0.00 0.00 0.00 47 1015.1
20260831191202 73 91 0.0 0.0 0.00 0.00 0.00 48 1015.1
20260831190657 73 344 0.0 0.0 0.00 0.00 0.00 45 1015.1
20260831190156 72 305 0.0 0.0 0.00 0.00 0.00 44 1015.1
20260831185651 72 305 0.0 0.0 0.00 0.00 0.00 44 1015.1
20260831185147 72 305 0.0 0.0 0.00 0.00 0.00 44 1015.1
20260831184641 73 222 0.0 0.0 0.00 0.00 0.00 44 1015.1
20260831184138 73 168 0.0 0.0 0.00 0.00 0.00 46 1015.4
20260831183637 70 179 0.0 0.0 0.00 0.00 0.00 53 1015.4
20260831183136 70 179 0.0 0.0 0.00 0.00 0.00 53 1015.4
20260831182629 72 228 0.0 0.0 0.00 0.00 0.00 49 1015.4
20260831182125 73 139 0.0 0.0 0.00 0.00 0.00 47 1015.4
20260831181620 72 209 0.0 0.0 0.00 0.00 0.00 49 1015.4
20260831181119 71 220 0.0 0.0 0.00 0.00 0.00 52 1015.4
20260831180435 68 166 0.0 0.0 0.00 0.00 0.00 51 1015.4
20260831175935 68 166 0.0 0.0 0.00 0.00 0.00 51 1015.4
20260831175431 70 207 0.0 0.0 0.00 0.00 0.00 52 1015.4
20260831174926 70 207 0.0 0.0 0.00 0.00 0.00 52 1015.4
20260831174422 70 139 0.0 0.0 0.00 0.00 0.00 48 1015.7
20260831173915 70 222 0.0 0.0 0.00 0.00 0.00 50 1015.4
20260831173409 70 222 0.0 0.0 0.00 0.00 0.00 50 1015.4
20260831172905 71 185 0.0 0.0 0.00 0.00 0.00 48 1015.4
20260831172400 71 185 0.0 0.0 0.00 0.00 0.00 48 1015.4
20260831171901 71 151 0.0 0.0 0.00 0.00 0.00 49 1015.1
20260831171357 71 151 0.0 0.0 0.00 0.00 0.00 49 1015.1
20260831170853 72 196 0.0 2.0 0.00 0.00 0.00 50 1015.4
20260831170349 72 133 0.0 0.0 0.00 0.00 0.00 48 1015.1
20260831165845 71 173 0.0 0.0 0.00 0.00 0.00 49 1015.1
20260831165341 70 12 0.0 0.0 0.00 0.00 0.00 49 1015.1
20260831164837 70 221 0.0 0.0 0.00 0.00 0.00 47 1015.1
20260831164333 70 173 0.0 0.0 0.00 0.00 0.00 50 1015.1
20260831163829 69 60 0.0 0.0 0.00 0.00 0.00 50 1015.4
20260831163324 69 171 0.0 0.0 0.00 0.00 0.00 49 1015.1
20260831162822 69 171 0.0 0.0 0.00 0.00 0.00 49 1015.1
20260831162318 70 249 0.0 0.0 0.00 0.00 0.00 51 1015.1
20260831161758 69 131 0.0 0.0 0.00 0.00 0.00 51 1015.1